Location: Elstree
(51.6403°N, 0.2969°W)
Time: 08:15:28
(UTC+00:00)

Envisat - Pass Details

Date: 09 December 2022
Orbit: 763 x 765 km, 98.2° (Epoch: 04 February)

Event Time Altitude Azimuth Distance (km) Brightness Sun altitude
Rises 05:33:43 0° 8° (N) 3,247 6.2 -20.7°
Reaches altitude 10° 05:36:15 10° 358° (N) 2,317 5.3 -20.3°
Enters shadow 05:38:47 24° 334° (NNW) 1,570 4.3 -19.9°
